Enschede Airport Twente

EHTW · Overijssel, Niederlande

METAR-Geschichte EHTW · Enschede Airport Twente

Unten siehst du die METARs der letzten paar Tage. Wähle ein Jahr, um ältere METARs ab dem Jahr 2007 zu durchsuchen.

3. Dezember 2022

Uhrzeit Code Wetter Temp. Sichtweite Wolkendecke Wind METAR/SPECI
20:20
M
0 °C 7 km 1.200 ft 050° 050° 4 kt METAR EDDG 031920Z AUTO 05004KT 010V140 7000 OVC012 M00/M03 Q1020 NOSIG
19:50
M
0 °C 7 km 1.200 ft 050° 050° 5 kt METAR EDDG 031850Z AUTO 05005KT 360V090 7000 OVC012 M00/M03 Q1020 NOSIG
19:20
M
0 °C 7 km 1.200 ft 060° 060° 4 kt METAR EDDG 031820Z AUTO 06004KT 350V110 7000 OVC012 M00/M03 Q1020 NOSIG
18:50
M
0 °C 7 km 1.200 ft 060° 060° 4 kt METAR EDDG 031750Z AUTO 06004KT 010V140 7000 OVC012 M00/M03 Q1020 NOSIG
18:20
M
0 °C 7 km 1.100 ft 060° 060° 4 kt METAR EDDG 031720Z AUTO 06004KT 350V130 7000 OVC011 M00/M03 Q1020 NOSIG
17:50
M
0 °C 7 km 1.100 ft 050° 050° 5 kt METAR EDDG 031650Z AUTO 05005KT 010V090 7000 OVC011 M00/M03 Q1020 NOSIG
17:20
M
0 °C 7 km 1.100 ft 040° 040° 7 kt METAR EDDG 031620Z AUTO 04007KT 350V090 7000 OVC011 M00/M03 Q1020 NOSIG
16:50
M
0 °C 7 km 1.000 ft 050° 050° 5 kt METAR EDDG 031550Z AUTO 05005KT 010V110 7000 OVC010 M00/M03 Q1020 NOSIG
16:20
M
0 °C 7 km 1.000 ft 040° 040° 6 kt METAR EDDG 031520Z AUTO 04006KT 360V100 7000 OVC010 M00/M03 Q1020 NOSIG
15:50
M
0 °C 7 km 1.000 ft 050° 050° 6 kt METAR EDDG 031450Z AUTO 05006KT 010V110 7000 OVC010 M00/M03 Q1020 NOSIG
15:20
M
0 °C 7 km 1.100 ft 040° 040° 6 kt METAR EDDG 031420Z AUTO 04006KT 010V140 7000 OVC011 M00/M02 Q1020 NOSIG
14:50
M
0 °C 7 km 1.000 ft 040° 040° 7 kt METAR EDDG 031350Z AUTO 04007KT 360V130 7000 OVC010 M00/M02 Q1021 NOSIG
14:20
M
0 °C 7 km 1.000 ft 050° 050° 7 kt METAR EDDG 031320Z AUTO 05007KT 360V100 7000 OVC010 M00/M02 Q1021 NOSIG
13:50
I
0 °C 6 km 800 ft 040° 040° 6 kt METAR EDDG 031250Z AUTO 04006KT 010V090 6000 OVC008 M00/M02 Q1021 BECMG BKN012
13:20
I
0 °C 5 km 800 ft 040° 040° 7 kt METAR EDDG 031220Z AUTO 04007KT 350V090 5000 BR OVC008 M00/M02 Q1021 BECMG BKN012
12:50
M
0 °C 6 km 1.100 ft 040° 040° 5 kt METAR EDDG 031150Z AUTO 04005KT 360V130 6000 -SN BKN011 M00/M02 Q1021 NOSIG
12:20
I
0 °C 5 km 900 ft 060° 060° 5 kt METAR EDDG 031120Z AUTO 06005KT 360V120 5000 -SN BR BKN009 M00/M02 Q1022 BECMG BKN012
11:50
I
0 °C 8 km 900 ft 050° 050° 5 kt METAR EDDG 031050Z AUTO 05005KT 360V100 8000 -SN OVC009 M00/M02 Q1022 BECMG BKN012
11:20
M
0 °C 10 km+ 1.000 ft 060° 060° 6 kt METAR EDDG 031020Z AUTO 06006KT 340V120 9999 OVC010 00/M02 Q1022 NOSIG
10:50
I
0 °C 10 km+ 900 ft Var Var 5 kt METAR EDDG 030950Z AUTO VRB05KT 9999 OVC009 00/M02 Q1023 NOSIG
10:20
I
0 °C 8 km 700 ft 070° 070° 5 kt METAR EDDG 030920Z AUTO 07005KT 010V140 8000 OVC007 M00/M02 Q1023 NOSIG
09:50
I
0 °C 7 km 700 ft 050° 050° 5 kt METAR EDDG 030850Z AUTO 05005KT 360V160 7000 OVC007 M00/M02 Q1023 NOSIG
09:20
I
0 °C 7 km 700 ft 060° 060° 5 kt METAR EDDG 030820Z AUTO 06005KT 010V130 7000 OVC007 00/M02 Q1023 NOSIG
08:50
I
0 °C 6 km 600 ft 080° 080° 5 kt METAR EDDG 030750Z AUTO 08005KT 010V130 6000 OVC006 00/M02 Q1023 NOSIG
08:20
I
0 °C 8 km 700 ft 060° 060° 6 kt METAR EDDG 030720Z AUTO 06006KT 010V120 8000 OVC007 00/M01 Q1023 NOSIG
07:50
I
0 °C 9 km 800 ft 050° 050° 5 kt METAR EDDG 030650Z AUTO 05005KT 360V150 9000 OVC008 00/M02 Q1023 NOSIG
07:20
I
0 °C 7 km 800 ft 050° 050° 6 kt METAR EDDG 030620Z AUTO 05006KT 010V110 7000 OVC008 00/M02 Q1023 NOSIG
06:50
I
0 °C 7 km 800 ft 050° 050° 7 kt METAR EDDG 030550Z AUTO 05007KT 360V090 7000 OVC008 00/M01 Q1023 NOSIG
06:20
I
0 °C 6 km 700 ft 050° 050° 7 kt METAR EDDG 030520Z AUTO 05007KT 330V120 6000 OVC007 00/M01 Q1023 NOSIG
05:50
I
0 °C 7 km 800 ft Var Var 6 kt METAR EDDG 030450Z AUTO VRB06KT 7000 OVC008 00/M01 Q1023 NOSIG
05:20
I
1 °C 8 km 900 ft Var Var 5 kt METAR EDDG 030420Z AUTO VRB05KT 8000 OVC009 01/M01 Q1023 TEMPO BKN010
04:50
M
1 °C 9 km 1.000 ft 060° 060° 7 kt METAR EDDG 030350Z AUTO 06007KT 020V140 9000 BKN010 01/M02 Q1023 TEMPO BKN008
04:20
I
1 °C 7 km 800 ft Var Var 4 kt METAR EDDG 030320Z AUTO VRB04KT 7000 OVC008 01/M01 Q1023 TEMPO 4000 -SN BR
03:50
I
1 °C 10 km+ 900 ft 060° 060° 5 kt METAR EDDG 030250Z AUTO 06005KT 360V130 9999 OVC009 01/M01 Q1023 NOSIG
03:20
M
1 °C 10 km+ 1.100 ft 060° 060° 7 kt METAR EDDG 030220Z AUTO 06007KT 020V130 9999 OVC011 01/M01 Q1023 NOSIG
02:50
M
1 °C 10 km+ 1.100 ft 070° 070° 5 kt METAR EDDG 030150Z AUTO 07005KT 350V120 9999 OVC011 01/M01 Q1023 TEMPO BKN009
02:20
M
1 °C 10 km+ 1.200 ft 060° 060° 7 kt METAR EDDG 030120Z AUTO 06007KT 020V110 9999 OVC012 01/M02 Q1023 NOSIG
01:50
M
1 °C 10 km+ 1.200 ft 070° 070° 7 kt METAR EDDG 030050Z AUTO 07007KT 360V120 9999 OVC012 01/M02 Q1023 TEMPO BKN009
01:20
M
1 °C 10 km+ 1.300 ft 060° 060° 6 kt METAR EDDG 030020Z AUTO 06006KT 340V130 9999 OVC013 01/M02 Q1023 TEMPO BKN009
00:50
M
1 °C 10 km+ 1.400 ft 050° 050° 6 kt METAR EDDG 022350Z AUTO 05006KT 350V110 9999 OVC014 01/M02 Q1024 TEMPO OVC015
00:20
M
1 °C 10 km+ 1.400 ft 050° 050° 7 kt METAR EDDG 022320Z AUTO 05007KT 360V110 9999 OVC014 01/M02 Q1024 TEMPO BKN015

2. Dezember 2022

Uhrzeit Code Wetter Temp. Sichtweite Wolkendecke Wind METAR/SPECI
23:50
M
1 °C 10 km+ 1.400 ft 050° 050° 6 kt METAR EDDG 022250Z AUTO 05006KT 360V130 9999 OVC014 01/M01 Q1024 TEMPO BKN015
23:20
M
1 °C 10 km+ 1.400 ft 050° 050° 7 kt METAR EDDG 022220Z AUTO 05007KT 010V110 9999 OVC014 01/M01 Q1024 TEMPO BKN015
22:50
M
1 °C 10 km+ 1.400 ft 050° 050° 8 - 18 kt METAR EDDG 022150Z AUTO 05008G18KT 350V140 9999 OVC014 01/M01 Q1024 NOSIG
22:20
M
1 °C 10 km+ 1.300 ft 050° 050° 7 kt METAR EDDG 022120Z AUTO 05007KT 010V120 9999 OVC013 01/M01 Q1024 NOSIG
21:50
M
1 °C 10 km+ 1.300 ft 050° 050° 6 kt METAR EDDG 022050Z AUTO 05006KT 310V120 9999 OVC013 01/M01 Q1024 NOSIG
21:20
M
1 °C 10 km+ 1.300 ft 050° 050° 7 kt METAR EDDG 022020Z AUTO 05007KT 010V100 9999 OVC013 01/M01 Q1024 NOSIG
20:50
M
1 °C 10 km+ 1.500 ft 040° 040° 9 kt METAR EDDG 021950Z AUTO 04009KT 360V090 9999 BKN015 OVC022 01/M01 Q1024 TEMPO BKN012
20:20
M
1 °C 10 km+ 1.500 ft 050° 050° 7 kt METAR EDDG 021920Z AUTO 05007KT 010V100 9999 -SN BKN015 OVC020 01/M01 Q1024 BECMG BKN012
19:50
M
1 °C 10 km+ 1.500 ft 040° 040° 7 kt METAR EDDG 021850Z AUTO 04007KT 360V100 9999 OVC015 01/M01 Q1024 BECMG BKN012
19:20
M
1 °C 10 km+ 1.600 ft 050° 050° 8 kt METAR EDDG 021820Z AUTO 05008KT 360V100 9999 BKN016 01/M01 Q1024 BECMG BKN012
18:50
M
2 °C 10 km+ 1.700 ft 040° 040° 8 kt METAR EDDG 021750Z AUTO 04008KT 010V100 9999 BKN017 OVC023 02/M01 Q1024 BECMG BKN012
18:20
M
2 °C 10 km+ 1.700 ft 040° 040° 8 kt METAR EDDG 021720Z AUTO 04008KT 350V080 9999 OVC017 02/M02 Q1024 BECMG BKN012
17:50
M
2 °C 10 km+ 1.800 ft 050° 050° 8 kt METAR EDDG 021650Z AUTO 05008KT 010V100 9999 -SN OVC018 02/M02 Q1024 NOSIG
17:20
M
2 °C 10 km+ 1.900 ft 040° 040° 8 kt METAR EDDG 021620Z AUTO 04008KT 010V090 9999 BKN019 OVC026 02/M02 Q1024 NOSIG
16:50
M
2 °C 10 km+ 2.200 ft 050° 050° 8 kt METAR EDDG 021550Z AUTO 05008KT 360V100 9999 SCT017 OVC022 02/M02 Q1024 NOSIG
16:20
M
2 °C 10 km+ 1.700 ft 050° 050° 9 kt METAR EDDG 021520Z AUTO 05009KT 350V110 9999 OVC017 02/M02 Q1024 NOSIG
15:50
M
2 °C 10 km+ 1.500 ft 040° 040° 9 kt METAR EDDG 021450Z AUTO 04009KT 360V120 9999 OVC015 02/M01 Q1024 TEMPO BKN014
15:20
M
2 °C 10 km+ 1.600 ft 040° 040° 11 - 21 kt METAR EDDG 021420Z AUTO 04011G21KT 360V110 9999 OVC016 02/M01 Q1024 NOSIG
14:50
M
2 °C 10 km+ 1.400 ft 050° 050° 6 kt METAR EDDG 021350Z AUTO 05006KT 350V110 9999 BKN014 02/M01 Q1024 BECMG BKN015
14:20
M
2 °C 9 km 1.300 ft 050° 050° 8 kt METAR EDDG 021320Z AUTO 05008KT 010V110 9000 OVC013 02/M01 Q1024 BECMG BKN015
13:50
M
2 °C 8 km 1.200 ft 040° 040° 9 kt METAR EDDG 021250Z AUTO 04009KT 010V100 8000 BKN012 02/M01 Q1024 TEMPO BKN008
13:20
M
2 °C 7 km 1.100 ft 050° 050° 7 kt METAR EDDG 021220Z AUTO 05007KT 020V100 7000 OVC011 02/M01 Q1024 TEMPO BKN008
12:50
M
2 °C 6 km 1.100 ft 040° 040° 8 kt METAR EDDG 021150Z AUTO 04008KT 360V100 6000 OVC011 02/M01 Q1024 TEMPO BKN008
12:20
M
2 °C 6 km 1.000 ft 040° 040° 7 kt METAR EDDG 021120Z AUTO 04007KT 360V110 6000 OVC010 02/M01 Q1024 TEMPO BKN008
11:50
M
2 °C 6 km 1.000 ft 040° 040° 6 kt METAR EDDG 021050Z AUTO 04006KT 010V100 6000 OVC010 02/M01 Q1025 TEMPO BKN012
11:20
I
1 °C 7 km 900 ft 040° 040° 8 kt METAR EDDG 021020Z AUTO 04008KT 360V090 7000 OVC009 01/M00 Q1025 TEMPO BKN012
10:50
M
1 °C 10 km+ 1.000 ft 050° 050° 7 kt METAR EDDG 020950Z AUTO 05007KT 360V120 9999 OVC010 01/M01 Q1025 TEMPO BKN008
10:20
M
2 °C 10 km+ 1.200 ft 050° 050° 7 kt METAR EDDG 020920Z AUTO 05007KT 010V110 9999 BKN012 OVC031 02/M01 Q1025 NOSIG
09:50
M
2 °C 10 km+ 1.200 ft 050° 050° 6 kt METAR EDDG 020850Z AUTO 05006KT 360V110 9999 BKN012 OVC031 02/M01 Q1025 NOSIG
09:20
M
2 °C 10 km+ 1.200 ft 040° 040° 6 kt METAR EDDG 020820Z AUTO 04006KT 360V100 9999 BKN012 OVC030 02/M01 Q1025 TEMPO BKN009
08:50
M
2 °C 10 km+ 1.200 ft 040° 040° 7 kt METAR EDDG 020750Z AUTO 04007KT 010V120 9999 BKN012 OVC028 02/M01 Q1025 TEMPO BKN009
08:20
M
2 °C 10 km+ 1.200 ft 050° 050° 8 kt METAR EDDG 020720Z AUTO 05008KT 010V100 9999 BKN012 OVC030 02/M01 Q1025 TEMPO BKN009
07:50
I
2 °C 10 km+ 900 ft 050° 050° 6 kt METAR EDDG 020650Z AUTO 05006KT 360V100 9999 OVC009 02/M00 Q1024 NOSIG
07:20
I
2 °C 8 km 800 ft 040° 040° 9 kt METAR EDDG 020620Z AUTO 04009KT 360V080 8000 OVC008 02/M00 Q1024 TEMPO BKN012
06:50
I
2 °C 8 km 800 ft 040° 040° 8 kt METAR EDDG 020550Z AUTO 04008KT 330V080 8000 OVC008 02/00 Q1024 TEMPO BKN012
06:20
I
2 °C 8 km 900 ft 050° 050° 6 kt METAR EDDG 020520Z AUTO 05006KT 010V100 8000 OVC009 02/00 Q1024 TEMPO BKN007
05:50
I
2 °C 7 km 800 ft 040° 040° 7 kt METAR EDDG 020450Z AUTO 04007KT 360V090 7000 OVC008 02/00 Q1024 TEMPO BKN011
05:20
I
2 °C 7 km 700 ft 050° 050° 6 kt METAR EDDG 020420Z AUTO 05006KT 340V100 7000 BKN007 OVC011 02/00 Q1025 TEMPO SCT008 BKN011
04:50
I
2 °C 7 km 700 ft 040° 040° 6 kt METAR EDDG 020350Z AUTO 04006KT 340V110 7000 OVC007 02/01 Q1025
04:20
I
2 °C 7 km 700 ft Var Var 7 kt METAR EDDG 020320Z AUTO VRB07KT 7000 OVC007 02/01 Q1025 NOSIG
03:50
I
2 °C 6 km 700 ft 050° 050° 7 kt METAR EDDG 020250Z AUTO 05007KT 340V100 6000 BKN007 OVC018 02/01 Q1025 TEMPO SCT007 BKN020
03:20
I
2 °C 9 km 800 ft 040° 040° 7 kt METAR EDDG 020220Z AUTO 04007KT 010V110 9000 OVC008 OVC017 02/01 Q1025 TEMPO SCT008 BKN015
02:50
I
2 °C 10 km+ 900 ft 040° 040° 7 kt METAR EDDG 020150Z AUTO 04007KT 360V090 9999 BKN009 OVC017 02/01 Q1025 TEMPO BKN015
02:20
M
2 °C 10 km+ 1.700 ft 040° 040° 7 kt METAR EDDG 020120Z AUTO 04007KT 010V100 9999 SCT010 OVC017 02/01 Q1025 TEMPO BKN010
01:50
M
2 °C 10 km+ 1.700 ft 030° 030° 6 kt METAR EDDG 020050Z AUTO 03006KT 9999 FEW010 OVC017 02/01 Q1026 NOSIG
01:20
M
3 °C 8 km 1.200 ft 050° 050° 4 kt METAR EDDG 020020Z AUTO 05004KT 360V120 8000 BKN012 OVC018 03/01 Q1026 NOSIG
00:50
M
3 °C 7 km 1.300 ft 050° 050° 4 kt METAR EDDG 012350Z AUTO 05004KT 010V130 7000 OVC013 03/01 Q1026 TEMPO BKN009
00:20
M
3 °C 7 km 1.200 ft 040° 040° 3 kt METAR EDDG 012320Z AUTO 04003KT 010V100 7000 OVC012 03/01 Q1026 TEMPO BKN009

1. Dezember 2022

Uhrzeit Code Wetter Temp. Sichtweite Wolkendecke Wind METAR/SPECI
23:50
M
3 °C 7 km 1.000 ft 040° 040° 4 kt METAR EDDG 012250Z AUTO 04004KT 010V120 7000 BKN010 OVC017 03/01 Q1026 TEMPO BKN009
23:20
M
3 °C 8 km 1.100 ft 050° 050° 4 kt METAR EDDG 012220Z AUTO 05004KT 350V130 8000 BKN011 OVC016 03/01 Q1027 TEMPO BKN009
22:50
M
3 °C 8 km 1.300 ft 040° 040° 4 kt METAR EDDG 012150Z AUTO 04004KT 010V090 8000 BKN013 OVC020 03/01 Q1027 NOSIG
22:20
M
3 °C 9 km 2.000 ft 050° 050° 3 kt METAR EDDG 012120Z AUTO 05003KT 360V160 9000 OVC020 03/01 Q1027 TEMPO BKN014
21:50
M
3 °C 8 km 1.800 ft 040° 040° 4 kt METAR EDDG 012050Z AUTO 04004KT 360V110 8000 FEW012 OVC018 03/01 Q1027 TEMPO BKN014
21:20
M
3 °C 8 km 1.400 ft 040° 040° 6 kt METAR EDDG 012020Z AUTO 04006KT 010V090 8000 BKN014 OVC019 03/00 Q1027 TEMPO SCT014
20:50
M
3 °C 10 km+ 1.600 ft 050° 050° 4 kt METAR EDDG 011950Z AUTO 05004KT 350V110 9999 OVC016 03/00 Q1027 TEMPO BKN012
20:20
M
3 °C 10 km+ 1.500 ft 060° 060° 4 kt METAR EDDG 011920Z AUTO 06004KT 020V130 9999 OVC015 03/00 Q1027 TEMPO BKN012
19:50
M
3 °C 10 km+ 1.500 ft 050° 050° 6 kt METAR EDDG 011850Z AUTO 05006KT 360V090 9999 OVC015 03/00 Q1027 TEMPO BKN014
19:20
M
3 °C 8 km 1.500 ft 040° 040° 5 kt METAR EDDG 011820Z AUTO 04005KT 010V100 8000 OVC015 03/01 Q1027 TEMPO BKN014
18:50
M
4 °C 8 km 1.300 ft 040° 040° 6 kt METAR EDDG 011750Z AUTO 04006KT 010V080 8000 OVC013 04/01 Q1027 NOSIG
18:20
M
4 °C 10 km+ 1.500 ft 070° 070° 3 kt METAR EDDG 011720Z AUTO 07003KT 020V120 9999 OVC015 04/01 Q1027 TEMPO BKN014
17:50
M
4 °C 7 km 1.400 ft 050° 050° 4 kt METAR EDDG 011650Z AUTO 05004KT 360V110 7000 OVC014 04/02 Q1027 TEMPO BKN015
17:20
M
4 °C 7 km 1.300 ft 050° 050° 4 kt METAR EDDG 011620Z AUTO 05004KT 360V110 7000 BKN013 OVC038 04/02 Q1027 NOSIG
16:50
M
4 °C 8 km 1.400 ft 040° 040° 5 kt METAR EDDG 011550Z AUTO 04005KT 350V100 8000 BKN014 OVC040 04/02 Q1027 TEMPO BKN015
16:20
M
4 °C 8 km 1.500 ft 020° 020° 6 kt METAR EDDG 011520Z AUTO 02006KT 8000 BKN015 OVC044 04/02 Q1027 TEMPO BKN014
15:50
M
5 °C 7 km 1.300 ft 020° 020° 6 kt METAR EDDG 011450Z AUTO 02006KT 360V060 7000 BKN013 OVC045 05/02 Q1027 TEMPO BKN015
15:20
M
5 °C 7 km 1.400 ft 040° 040° 5 kt METAR EDDG 011420Z AUTO 04005KT 360V080 7000 BKN014 05/02 Q1027 TEMPO BKN015
14:50
M
5 °C 7 km 1.600 ft 040° 040° 4 kt METAR EDDG 011350Z AUTO 04004KT 360V100 7000 FEW011 BKN016 OVC043 05/03 Q1026 NOSIG
14:20
M
5 °C 6 km 1.200 ft 040° 040° 6 kt METAR EDDG 011320Z AUTO 04006KT 360V100 6000 BKN012 BKN017 OVC043 05/03 Q1027 NOSIG
13:50
M
5 °C 5 km 1.100 ft 050° 050° 4 kt METAR EDDG 011250Z AUTO 05004KT 340V100 5000 BR BKN011 05/03 Q1027 NOSIG
13:20
I
5 °C 5 km 900 ft 050° 050° 4 kt METAR EDDG 011220Z AUTO 05004KT 010V130 5000 BR BKN009 05/03 Q1027 TEMPO 4000 BR BKN010
12:50
M
5 °C 6 km 1.000 ft 040° 040° 5 kt METAR EDDG 011150Z AUTO 04005KT 360V090 6000 OVC010 05/03 Q1027 TEMPO OVC009
12:20
M
5 °C 6 km 1.000 ft 040° 040° 4 kt METAR EDDG 011120Z AUTO 04004KT 360V110 6000 OVC010 05/03 Q1027 NOSIG
11:50
M
5 °C 6 km 1.000 ft 040° 040° 5 kt METAR EDDG 011050Z AUTO 04005KT 360V090 6000 OVC010 05/03 Q1027 NOSIG
11:20
I
5 °C 5 km 900 ft 040° 040° 5 kt METAR EDDG 011020Z AUTO 04005KT 010V080 5000 BR BKN009 OVC014 05/03 Q1027 TEMPO BKN010 OVC015
10:50
I
5 °C 4,8 km 700 ft 040° 040° 5 kt METAR EDDG 010950Z AUTO 04005KT 360V080 4800 BR OVC007 05/03 Q1028 BECMG 6000

Wir und Dritte verfolgen dein Internetverhalten auf unserer Website mit Cookies. Wenn du fortfährst, gehen wir davon aus, dass du mit unserer Cookie-Richtlinie einverstanden bist.